Time,TemperatureF,DewpointF,PressureIn,WindDirection,WindDirectionDegrees,WindSpeedMPH,WindSpeedGustMPH,Humidity,HourlyPrecipIn,Conditions,Clouds,dailyrainin,SolarRadiationWatts/m^2,SoftwareType,DateUTC
2013-06-08 00:01:00,57.6,56.5,29.68,NNE,15,3.0,17.0,96,0.29,,,0.65,0.0,meteohub,2013-06-08 04:01:00,
2013-06-08 00:02:00,57.6,56.5,29.68,NNE,15,2.0,17.0,96,0.29,,,0.65,0.0,meteohub,2013-06-08 04:02:00,
2013-06-08 00:07:00,57.6,56.5,29.68,North,9,3.0,14.0,96,0.26,,,0.67,0.0,meteohub,2013-06-08 04:07:00,
2013-06-08 00:13:00,57.7,56.7,29.68,NE,46,2.0,11.0,96,0.24,,,0.68,0.0,meteohub,2013-06-08 04:13:00,
2013-06-08 00:18:00,57.6,56.5,29.66,NE,35,6.0,10.0,96,0.21,,,0.68,0.0,meteohub,2013-06-08 04:18:00,
2013-06-08 00:23:00,57.6,56.5,29.66,NNE,17,9.0,10.0,96,0.22,,,0.70,0.0,meteohub,2013-06-08 04:23:00,
2013-06-08 00:28:00,57.6,56.5,29.66,NNE,19,7.0,13.0,96,0.21,,,0.70,0.0,meteohub,2013-06-08 04:28:00,
2013-06-08 00:33:00,57.6,56.5,29.66,NE,48,6.0,13.0,96,0.21,,,0.71,0.0,meteohub,2013-06-08 04:33:00,
2013-06-08 00:38:00,57.6,56.5,29.66,NE,44,3.0,13.0,96,0.19,,,0.71,0.0,meteohub,2013-06-08 04:38:00,
2013-06-08 00:43:00,57.6,56.5,29.66,North,0,6.0,12.0,96,0.20,,,0.72,0.0,meteohub,2013-06-08 04:43:00,
2013-06-08 00:48:00,57.6,56.5,29.65,NNW,327,7.0,14.0,96,0.15,,,0.72,0.0,meteohub,2013-06-08 04:48:00,
2013-06-08 00:53:00,57.6,56.5,29.64,North,9,11.0,14.0,96,0.11,,,0.72,0.0,meteohub,2013-06-08 04:53:00,
2013-06-08 00:58:00,57.6,56.5,29.65,North,355,4.0,14.0,96,0.09,,,0.73,0.0,meteohub,2013-06-08 04:58:00,
2013-06-08 01:04:00,57.6,56.5,29.65,NW,321,11.0,14.0,96,0.07,,,0.73,0.0,meteohub,2013-06-08 05:04:00,
2013-06-08 01:09:00,57.6,56.5,29.65,NNE,24,2.0,14.0,96,0.07,,,0.74,0.0,meteohub,2013-06-08 05:09:00,
2013-06-08 01:14:00,57.6,56.5,29.64,North,0,6.0,14.0,96,0.06,,,0.74,0.0,meteohub,2013-06-08 05:14:00,
2013-06-08 01:19:00,57.6,56.5,29.64,North,5,2.0,12.0,96,0.05,,,0.74,0.0,meteohub,2013-06-08 05:19:00,
2013-06-08 01:24:00,57.6,56.5,29.64,North,0,4.0,11.0,96,0.04,,,0.74,0.0,meteohub,2013-06-08 05:24:00,
2013-06-08 01:29:00,57.6,56.5,29.63,North,11,5.0,10.0,96,0.04,,,0.75,0.0,meteohub,2013-06-08 05:29:00,
2013-06-08 01:34:00,57.6,56.5,29.63,NNE,24,6.0,12.0,96,0.04,,,0.75,0.0,meteohub,2013-06-08 05:34:00,
2013-06-08 01:40:00,57.6,56.5,29.62,NNE,16,7.0,12.0,96,0.04,,,0.75,0.0,meteohub,2013-06-08 05:40:00,
2013-06-08 01:45:00,57.4,56.3,29.62,North,355,8.0,12.0,96,0.04,,,0.76,0.0,meteohub,2013-06-08 05:45:00,
2013-06-08 01:50:00,57.4,56.3,29.62,North,350,8.0,14.0,96,0.04,,,0.77,0.0,meteohub,2013-06-08 05:50:00,
2013-06-08 01:55:00,57.2,56.1,29.62,NNE,20,7.0,14.0,96,0.05,,,0.78,0.0,meteohub,2013-06-08 05:55:00,
2013-06-08 02:00:00,57.0,55.9,29.61,North,5,7.0,14.0,96,0.06,,,0.79,0.0,meteohub,2013-06-08 06:00:00,
2013-06-08 02:05:00,57.0,55.9,29.61,North,355,7.0,14.0,96,0.05,,,0.79,0.0,meteohub,2013-06-08 06:05:00,
2013-06-08 02:10:00,57.0,55.9,29.60,North,355,6.0,14.0,96,0.05,,,0.79,0.0,meteohub,2013-06-08 06:10:00,
2013-06-08 02:15:00,56.8,55.8,29.60,North,5,5.0,13.0,96,0.07,,,0.81,0.0,meteohub,2013-06-08 06:15:00,
2013-06-08 02:21:00,56.8,55.8,29.60,North,355,10.0,15.0,96,0.06,,,0.81,0.0,meteohub,2013-06-08 06:21:00,
2013-06-08 02:26:00,56.8,55.8,29.59,NNE,22,7.0,15.0,96,0.07,,,0.82,0.0,meteohub,2013-06-08 06:26:00,
2013-06-08 02:31:00,56.8,55.8,29.59,NNE,18,8.0,15.0,96,0.07,,,0.82,0.0,meteohub,2013-06-08 06:31:00,
2013-06-08 02:36:00,56.8,55.8,29.59,NNW,346,5.0,14.0,96,0.06,,,0.82,0.0,meteohub,2013-06-08 06:36:00,
2013-06-08 02:41:00,56.7,55.6,29.58,NE,38,10.0,14.0,96,0.08,,,0.84,0.0,meteohub,2013-06-08 06:41:00,
2013-06-08 02:46:00,56.7,55.6,29.58,NNE,15,10.0,16.0,96,0.07,,,0.84,0.0,meteohub,2013-06-08 06:46:00,
2013-06-08 02:52:00,56.7,55.6,29.58,NNE,23,15.0,16.0,96,0.06,,,0.84,0.0,meteohub,2013-06-08 06:52:00,
2013-06-08 02:57:00,56.7,55.6,29.57,North,355,11.0,17.0,96,0.07,,,0.85,0.0,meteohub,2013-06-08 06:57:00,
2013-06-08 03:02:00,56.7,55.6,29.57,NNW,344,18.0,18.0,96,0.06,,,0.85,0.0,meteohub,2013-06-08 07:02:00,
2013-06-08 03:07:00,56.7,55.6,29.57,North,10,9.0,18.0,96,0.06,,,0.85,0.0,meteohub,2013-06-08 07:07:00,
2013-06-08 03:12:00,56.7,55.6,29.57,North,0,7.0,18.0,96,0.06,,,0.86,0.0,meteohub,2013-06-08 07:12:00,
2013-06-08 03:17:00,56.7,55.6,29.57,North,355,14.0,18.0,96,0.05,,,0.86,0.0,meteohub,2013-06-08 07:17:00,
2013-06-08 03:22:00,56.7,55.6,29.56,NNE,12,8.0,21.0,96,0.05,,,0.86,0.0,meteohub,2013-06-08 07:22:00,
2013-06-08 03:27:00,56.5,55.4,29.56,North,355,10.0,21.0,96,0.04,,,0.86,0.0,meteohub,2013-06-08 07:27:00,
2013-06-08 03:32:00,56.3,55.2,29.56,NNE,19,13.0,21.0,96,0.04,,,0.86,0.0,meteohub,2013-06-08 07:32:00,
2013-06-08 03:37:00,56.3,55.2,29.56,North,0,10.0,19.0,96,0.03,,,0.86,0.0,meteohub,2013-06-08 07:37:00,
2013-06-08 03:42:00,56.1,55.0,29.55,NE,37,21.0,21.0,96,0.02,,,0.86,0.0,meteohub,2013-06-08 07:42:00,
2013-06-08 03:47:00,55.9,54.9,29.55,NNE,13,7.0,21.0,96,0.04,,,0.88,0.0,meteohub,2013-06-08 07:47:00,
2013-06-08 03:52:00,55.9,54.9,29.56,North,355,7.0,21.0,96,0.03,,,0.88,0.0,meteohub,2013-06-08 07:52:00,
2013-06-08 03:57:00,55.8,54.7,29.55,NW,317,9.0,21.0,96,0.03,,,0.88,0.0,meteohub,2013-06-08 07:57:00,
2013-06-08 04:02:00,55.8,54.7,29.55,North,0,11.0,18.0,96,0.04,,,0.89,0.0,meteohub,2013-06-08 08:02:00,
2013-06-08 04:07:00,55.6,54.5,29.55,North,10,10.0,18.0,96,0.04,,,0.89,0.0,meteohub,2013-06-08 08:07:00,
2013-06-08 04:12:00,55.6,54.5,29.55,NNE,28,9.0,18.0,96,0.03,,,0.89,0.0,meteohub,2013-06-08 08:12:00,
2013-06-08 04:17:00,55.4,54.3,29.55,NNE,28,9.0,18.0,96,0.03,,,0.89,0.0,meteohub,2013-06-08 08:17:00,
2013-06-08 04:22:00,55.2,54.1,29.55,NNE,19,9.0,18.0,96,0.03,,,0.89,0.0,meteohub,2013-06-08 08:22:00,
2013-06-08 04:27:00,55.2,54.1,29.55,NW,317,11.0,17.0,96,0.03,,,0.89,0.0,meteohub,2013-06-08 08:27:00,
2013-06-08 04:32:00,55.2,54.1,29.55,NW,321,5.0,17.0,96,0.03,,,0.89,0.0,meteohub,2013-06-08 08:32:00,
2013-06-08 04:37:00,55.2,54.1,29.55,NNW,328,8.0,17.0,96,0.03,,,0.89,0.0,meteohub,2013-06-08 08:37:00,
2013-06-08 04:42:00,55.2,54.1,29.55,North,5,11.0,17.0,96,0.03,,,0.90,0.0,meteohub,2013-06-08 08:42:00,
2013-06-08 04:47:00,55.0,54.0,29.55,North,355,11.0,19.0,96,0.02,,,0.90,0.0,meteohub,2013-06-08 08:47:00,
2013-06-08 04:52:00,55.0,54.0,29.55,North,355,12.0,19.0,96,0.02,,,0.90,0.0,meteohub,2013-06-08 08:52:00,
2013-06-08 04:57:00,55.0,54.0,29.55,NNW,346,9.0,19.0,96,0.02,,,0.90,0.0,meteohub,2013-06-08 08:57:00,
2013-06-08 05:03:00,54.9,53.8,29.55,NNE,13,9.0,20.0,96,0.02,,,0.91,0.0,meteohub,2013-06-08 09:03:00,
2013-06-08 05:08:00,54.9,53.8,29.55,NNE,15,9.0,20.0,96,0.02,,,0.91,0.0,meteohub,2013-06-08 09:08:00,
2013-06-08 05:13:00,54.9,53.8,29.56,NNW,342,9.0,20.0,96,0.02,,,0.91,0.0,meteohub,2013-06-08 09:13:00,
2013-06-08 05:18:00,54.9,53.8,29.56,North,5,8.0,20.0,96,0.02,,,0.91,0.0,meteohub,2013-06-08 09:18:00,
2013-06-08 05:23:00,54.7,53.6,29.56,North,0,12.0,20.0,96,0.02,,,0.91,0.0,meteohub,2013-06-08 09:23:00,
2013-06-08 05:28:00,54.7,53.6,29.57,NNW,348,13.0,20.0,96,0.02,,,0.91,0.0,meteohub,2013-06-08 09:28:00,
2013-06-08 05:33:00,54.7,53.6,29.57,North,355,12.0,19.0,96,0.02,,,0.91,5.0,meteohub,2013-06-08 09:33:00,
2013-06-08 05:38:00,54.5,53.4,29.57,North,9,6.0,19.0,96,0.01,,,0.91,9.0,meteohub,2013-06-08 09:38:00,
2013-06-08 05:43:00,54.3,53.2,29.57,NNW,342,12.0,18.0,96,0.01,,,0.91,14.0,meteohub,2013-06-08 09:43:00,
2013-06-08 05:48:00,54.3,53.2,29.58,North,355,16.0,23.0,96,0.01,,,0.91,18.0,meteohub,2013-06-08 09:48:00,
2013-06-08 05:53:00,54.3,53.2,29.59,WNW,303,7.0,23.0,96,0.01,,,0.91,18.0,meteohub,2013-06-08 09:53:00,
2013-06-08 05:58:00,54.3,53.2,29.59,NNW,348,21.0,23.0,96,0.01,,,0.91,26.0,meteohub,2013-06-08 09:58:00,
2013-06-08 06:03:00,54.3,53.2,29.60,NW,306,11.0,23.0,96,0.00,,,0.91,25.0,meteohub,2013-06-08 10:03:00,
2013-06-08 06:09:00,54.3,53.2,29.60,NW,309,12.0,24.0,96,0.00,,,0.91,25.0,meteohub,2013-06-08 10:09:00,
2013-06-08 06:14:00,54.3,53.2,29.61,NW,311,9.0,24.0,96,0.00,,,0.91,21.0,meteohub,2013-06-08 10:14:00,
2013-06-08 06:19:00,54.3,53.2,29.61,NNE,13,8.0,20.0,96,0.00,,,0.91,25.0,meteohub,2013-06-08 10:19:00,
2013-06-08 06:24:00,54.5,53.1,29.61,North,350,10.0,20.0,95,0.00,,,0.91,40.0,meteohub,2013-06-08 10:24:00,
2013-06-08 06:29:00,54.7,53.2,29.61,North,355,13.0,21.0,95,0.00,,,0.91,53.0,meteohub,2013-06-08 10:29:00,
2013-06-08 06:34:00,54.7,53.6,29.62,NNW,328,15.0,21.0,96,0.00,,,0.91,42.0,meteohub,2013-06-08 10:34:00,
2013-06-08 06:39:00,54.9,53.4,29.63,North,0,10.0,23.0,95,0.00,,,0.91,33.0,meteohub,2013-06-08 10:39:00,
2013-06-08 06:44:00,54.9,53.4,29.64,NNE,15,11.0,23.0,95,0.00,,,0.91,21.0,meteohub,2013-06-08 10:44:00,
2013-06-08 06:49:00,54.9,53.4,29.65,NNE,18,11.0,22.0,95,0.00,,,0.91,46.0,meteohub,2013-06-08 10:49:00,
2013-06-08 06:55:00,55.0,53.6,29.65,NNW,338,7.0,20.0,95,0.00,,,0.91,83.0,meteohub,2013-06-08 10:55:00,
2013-06-08 07:00:00,55.2,53.8,29.65,WNW,298,12.0,20.0,95,0.00,,,0.91,84.0,meteohub,2013-06-08 11:00:00,
2013-06-08 07:05:00,55.4,54.0,29.67,NNW,344,9.0,24.0,95,0.00,,,0.91,81.0,meteohub,2013-06-08 11:05:00,
2013-06-08 07:10:00,55.4,54.0,29.67,WNW,299,9.0,24.0,95,0.00,,,0.91,77.0,meteohub,2013-06-08 11:10:00,
2013-06-08 07:15:00,55.6,54.1,29.68,NW,321,8.0,21.0,95,0.00,,,0.91,116.0,meteohub,2013-06-08 11:15:00,
2013-06-08 07:20:00,55.8,54.3,29.68,NNE,27,9.0,19.0,95,0.00,,,0.91,120.0,meteohub,2013-06-08 11:20:00,
2013-06-08 07:25:00,55.9,54.5,29.69,NNW,340,7.0,19.0,95,0.00,,,0.91,91.0,meteohub,2013-06-08 11:25:00,
2013-06-08 07:30:00,55.9,54.3,29.70,NW,309,13.0,19.0,94,0.00,,,0.91,70.0,meteohub,2013-06-08 11:30:00,
2013-06-08 07:36:00,56.1,54.5,29.70,NNW,338,8.0,18.0,94,0.00,,,0.91,81.0,meteohub,2013-06-08 11:36:00,
2013-06-08 07:41:00,56.5,55.0,29.71,NW,319,13.0,18.0,95,0.00,,,0.91,172.0,meteohub,2013-06-08 11:41:00,
2013-06-08 07:46:00,56.8,55.2,29.71,WNW,295,12.0,17.0,94,0.00,,,0.91,192.0,meteohub,2013-06-08 11:46:00,
2013-06-08 07:51:00,57.2,55.4,29.71,North,355,10.0,22.0,94,0.00,,,0.91,207.0,meteohub,2013-06-08 11:51:00,
2013-06-08 07:56:00,57.6,55.6,29.71,WNW,299,12.0,22.0,93,0.00,,,0.91,202.0,meteohub,2013-06-08 11:56:00,
2013-06-08 08:01:00,57.9,55.9,29.72,NW,323,10.0,22.0,93,0.00,,,0.91,199.0,meteohub,2013-06-08 12:01:00,
2013-06-08 08:06:00,58.6,56.3,29.71,NNW,341,16.0,16.0,92,0.00,,,0.91,385.0,meteohub,2013-06-08 12:06:00,
2013-06-08 08:12:00,59.2,56.5,29.72,North,350,9.0,21.0,91,0.00,,,0.91,434.0,meteohub,2013-06-08 12:12:00,
2013-06-08 08:17:00,59.7,56.8,29.73,WNW,295,9.0,21.0,90,0.00,,,0.91,468.0,meteohub,2013-06-08 12:17:00,
2013-06-08 08:22:00,60.6,57.0,29.73,NW,315,13.0,21.0,88,0.00,,,0.91,468.0,meteohub,2013-06-08 12:22:00,
2013-06-08 08:27:00,61.3,57.4,29.73,WNW,302,13.0,20.0,87,0.00,,,0.91,490.0,meteohub,2013-06-08 12:27:00,
2013-06-08 08:32:00,62.1,57.6,29.73,NNW,333,6.0,20.0,85,0.00,,,0.91,519.0,meteohub,2013-06-08 12:32:00,
2013-06-08 08:37:00,62.4,57.6,29.74,NW,309,13.0,20.0,84,0.00,,,0.91,555.0,meteohub,2013-06-08 12:37:00,
2013-06-08 08:42:00,62.4,56.8,29.75,North,355,15.0,19.0,82,0.00,,,0.91,613.0,meteohub,2013-06-08 12:42:00,
2013-06-08 08:47:00,63.1,57.6,29.76,WNW,296,13.0,21.0,82,0.00,,,0.91,626.0,meteohub,2013-06-08 12:47:00,
2013-06-08 08:53:00,63.1,57.6,29.77,WNW,296,7.0,21.0,82,0.00,,,0.91,306.0,meteohub,2013-06-08 12:53:00,
2013-06-08 08:58:00,63.3,57.7,29.78,NW,315,8.0,19.0,82,0.00,,,0.91,464.0,meteohub,2013-06-08 12:58:00,
2013-06-08 09:03:00,63.3,57.7,29.78,NW,318,9.0,18.0,82,0.00,,,0.91,359.0,meteohub,2013-06-08 13:03:00,
2013-06-08 09:08:00,64.2,58.6,29.78,NNW,338,7.0,17.0,82,0.00,,,0.91,531.0,meteohub,2013-06-08 13:08:00,
2013-06-08 09:13:00,65.1,58.5,29.79,North,349,10.0,13.0,79,0.00,,,0.91,773.0,meteohub,2013-06-08 13:13:00,
2013-06-08 09:18:00,66.4,59.4,29.79,NNW,334,6.0,17.0,78,0.00,,,0.91,373.0,meteohub,2013-06-08 13:18:00,
2013-06-08 09:23:00,66.4,59.0,29.79,NW,326,8.0,17.0,77,0.00,,,0.91,373.0,meteohub,2013-06-08 13:23:00,
2013-06-08 09:28:00,66.6,59.2,29.80,WNW,299,5.0,17.0,77,0.00,,,0.91,283.0,meteohub,2013-06-08 13:28:00,
2013-06-08 09:34:00,67.1,59.4,29.80,NNW,340,7.0,14.0,76,0.00,,,0.91,283.0,meteohub,2013-06-08 13:34:00,
2013-06-08 09:39:00,67.3,59.5,29.81,NW,320,6.0,14.0,76,0.00,,,0.91,371.0,meteohub,2013-06-08 13:39:00,
2013-06-08 09:44:00,66.9,59.5,29.81,NNW,337,6.0,13.0,77,0.00,,,0.91,381.0,meteohub,2013-06-08 13:44:00,
2013-06-08 09:49:00,67.1,59.4,29.81,West,261,10.0,14.0,76,0.00,,,0.91,385.0,meteohub,2013-06-08 13:49:00,
2013-06-08 09:54:00,67.6,60.3,29.80,WNW,301,5.0,14.0,77,0.00,,,0.91,798.0,meteohub,2013-06-08 13:54:00,
2013-06-08 09:59:00,69.6,60.6,29.80,WNW,292,2.0,18.0,73,0.00,,,0.91,840.0,meteohub,2013-06-08 13:59:00,
2013-06-08 10:04:00,70.3,60.1,29.80,NW,309,8.0,18.0,70,0.00,,,0.91,446.0,meteohub,2013-06-08 14:04:00,
2013-06-08 10:09:00,70.3,60.4,29.80,NW,308,7.0,14.0,71,0.00,,,0.91,675.0,meteohub,2013-06-08 14:09:00,
2013-06-08 10:14:00,69.6,60.3,29.80,NNW,340,5.0,16.0,72,0.00,,,0.91,751.0,meteohub,2013-06-08 14:14:00,
2013-06-08 10:19:00,71.2,61.3,29.81,WNW,290,5.0,16.0,71,0.00,,,0.91,766.0,meteohub,2013-06-08 14:19:00,
2013-06-08 10:24:00,71.6,60.8,29.81,NW,304,11.0,14.0,69,0.00,,,0.91,768.0,meteohub,2013-06-08 14:24:00,
2013-06-08 10:29:00,71.8,61.0,29.81,NW,311,4.0,14.0,69,0.00,,,0.91,779.0,meteohub,2013-06-08 14:29:00,
2013-06-08 10:34:00,71.8,61.0,29.82,NW,308,15.0,17.0,69,0.00,,,0.91,844.0,meteohub,2013-06-08 14:34:00,
2013-06-08 10:40:00,71.2,60.6,29.82,West,259,8.0,17.0,69,0.00,,,0.91,891.0,meteohub,2013-06-08 14:40:00,
2013-06-08 10:45:00,71.6,61.3,29.82,NNW,331,13.0,18.0,70,0.00,,,0.91,930.0,meteohub,2013-06-08 14:45:00,
2013-06-08 10:50:00,73.8,61.7,29.82,NNW,332,9.0,18.0,66,0.00,,,0.91,1034.0,meteohub,2013-06-08 14:50:00,
2013-06-08 10:55:00,72.1,61.0,29.82,WNW,286,5.0,18.0,68,0.00,,,0.91,935.0,meteohub,2013-06-08 14:55:00,
2013-06-08 11:00:00,71.2,61.3,29.83,North,355,7.0,18.0,71,0.00,,,0.91,654.0,meteohub,2013-06-08 15:00:00,
2013-06-08 11:05:00,72.7,61.9,29.83,SW,230,2.0,16.0,69,0.00,,,0.91,475.0,meteohub,2013-06-08 15:05:00,
2013-06-08 11:10:00,72.7,61.9,29.84,West,265,10.0,14.0,69,0.00,,,0.91,893.0,meteohub,2013-06-08 15:10:00,
2013-06-08 11:15:00,73.6,62.8,29.84,NW,323,4.0,17.0,69,0.00,,,0.91,969.0,meteohub,2013-06-08 15:15:00,
2013-06-08 11:21:00,73.6,61.5,29.84,NW,308,9.0,17.0,66,0.00,,,0.91,918.0,meteohub,2013-06-08 15:21:00,
2013-06-08 11:26:00,73.2,62.4,29.85,West,273,5.0,15.0,69,0.00,,,0.91,988.0,meteohub,2013-06-08 15:26:00,
2013-06-08 11:31:00,73.8,62.6,29.84,SW,228,13.0,14.0,68,0.00,,,0.91,911.0,meteohub,2013-06-08 15:31:00,
2013-06-08 11:36:00,74.3,62.6,29.85,SW,215,9.0,14.0,67,0.00,,,0.91,991.0,meteohub,2013-06-08 15:36:00,
2013-06-08 11:41:00,73.4,62.6,29.85,NW,308,8.0,14.0,69,0.00,,,0.91,538.0,meteohub,2013-06-08 15:41:00,
2013-06-08 11:47:00,74.1,62.4,29.85,SSW,211,6.0,14.0,67,0.00,,,0.91,1028.0,meteohub,2013-06-08 15:47:00,
2013-06-08 11:52:00,72.9,61.7,29.85,South,182,4.0,14.0,68,0.00,,,0.91,991.0,meteohub,2013-06-08 15:52:00,
2013-06-08 11:57:00,71.6,62.4,29.86,SSW,212,8.0,13.0,73,0.00,,,0.91,940.0,meteohub,2013-06-08 15:57:00,
2013-06-08 12:02:00,70.2,61.5,29.86,West,266,10.0,13.0,74,0.00,,,0.91,863.0,meteohub,2013-06-08 16:02:00,
2013-06-08 12:07:00,69.3,61.3,29.86,SSW,192,6.0,16.0,76,0.00,,,0.91,933.0,meteohub,2013-06-08 16:07:00,
2013-06-08 12:12:00,68.9,61.3,29.86,SW,232,12.0,18.0,77,0.00,,,0.91,921.0,meteohub,2013-06-08 16:12:00,
2013-06-08 12:17:00,69.4,61.9,29.86,SW,225,10.0,18.0,77,0.00,,,0.91,923.0,meteohub,2013-06-08 16:17:00,
2013-06-08 12:22:00,69.8,61.5,29.86,SSE,164,4.0,15.0,75,0.00,,,0.91,949.0,meteohub,2013-06-08 16:22:00,
2013-06-08 12:27:00,70.2,61.5,29.86,SSW,211,13.0,18.0,74,0.00,,,0.91,893.0,meteohub,2013-06-08 16:27:00,
2013-06-08 12:32:00,69.6,61.3,29.86,SW,234,8.0,18.0,75,0.00,,,0.91,506.0,meteohub,2013-06-08 16:32:00,
2013-06-08 12:38:00,68.9,61.0,29.86,WSW,240,12.0,18.0,76,0.00,,,0.91,534.0,meteohub,2013-06-08 16:38:00,
2013-06-08 12:43:00,68.4,61.2,29.87,SSW,211,12.0,18.0,78,0.00,,,0.91,522.0,meteohub,2013-06-08 16:43:00,
2013-06-08 12:48:00,68.4,61.5,29.87,SW,214,6.0,17.0,79,0.00,,,0.91,700.0,meteohub,2013-06-08 16:48:00,
2013-06-08 12:53:00,68.5,61.3,29.87,SSW,196,8.0,17.0,78,0.00,,,0.91,935.0,meteohub,2013-06-08 16:53:00,
2013-06-08 12:58:00,69.3,62.4,29.87,South,188,11.0,16.0,79,0.00,,,0.91,482.0,meteohub,2013-06-08 16:58:00,
2013-06-08 13:03:00,68.7,61.5,29.87,WSW,244,10.0,16.0,78,0.00,,,0.91,592.0,meteohub,2013-06-08 17:03:00,
2013-06-08 13:08:00,68.4,61.2,29.88,WSW,254,4.0,19.0,78,0.00,,,0.91,490.0,meteohub,2013-06-08 17:08:00,
2013-06-08 13:13:00,69.1,61.9,29.87,West,261,1.0,19.0,78,0.00,,,0.91,861.0,meteohub,2013-06-08 17:13:00,
2013-06-08 13:18:00,69.1,61.9,29.87,WSW,243,4.0,19.0,78,0.00,,,0.91,925.0,meteohub,2013-06-08 17:18:00,
2013-06-08 13:23:00,70.3,62.4,29.88,WSW,239,11.0,15.0,76,0.00,,,0.91,1013.0,meteohub,2013-06-08 17:23:00,
2013-06-08 13:28:00,70.2,62.2,29.87,SSW,209,11.0,18.0,76,0.00,,,0.91,1023.0,meteohub,2013-06-08 17:28:00,
2013-06-08 13:33:00,70.9,63.0,29.88,SSW,195,10.0,18.0,76,0.00,,,0.91,410.0,meteohub,2013-06-08 17:33:00,
2013-06-08 13:38:00,71.1,62.8,29.88,SW,228,13.0,19.0,75,0.00,,,0.91,526.0,meteohub,2013-06-08 17:38:00,
2013-06-08 13:44:00,70.7,62.8,29.88,SSW,194,5.0,19.0,76,0.00,,,0.91,831.0,meteohub,2013-06-08 17:44:00,
2013-06-08 13:49:00,70.2,62.6,29.88,SW,227,6.0,19.0,77,0.00,,,0.91,550.0,meteohub,2013-06-08 17:49:00,
2013-06-08 13:54:00,70.3,62.4,29.88,SSE,155,6.0,16.0,76,0.00,,,0.91,536.0,meteohub,2013-06-08 17:54:00,
2013-06-08 13:59:00,70.7,62.8,29.88,SSW,194,5.0,15.0,76,0.00,,,0.91,1060.0,meteohub,2013-06-08 17:59:00,
2013-06-08 14:04:00,71.2,63.3,29.88,SSW,198,2.0,15.0,76,0.00,,,0.91,909.0,meteohub,2013-06-08 18:04:00,
2013-06-08 14:10:00,72.1,63.9,29.88,South,188,12.0,15.0,75,0.00,,,0.91,875.0,meteohub,2013-06-08 18:10:00,
2013-06-08 14:15:00,71.8,63.0,29.88,East,97,11.0,11.0,74,0.00,,,0.91,867.0,meteohub,2013-06-08 18:15:00,
2013-06-08 14:20:00,71.6,63.7,29.88,SW,215,7.0,16.0,76,0.00,,,0.91,860.0,meteohub,2013-06-08 18:20:00,
2013-06-08 14:25:00,72.9,64.0,29.88,WSW,240,3.0,16.0,74,0.00,,,0.91,853.0,meteohub,2013-06-08 18:25:00,
2013-06-08 14:30:00,73.6,64.4,29.88,NW,321,1.0,16.0,73,0.00,,,0.91,847.0,meteohub,2013-06-08 18:30:00,
2013-06-08 14:35:00,73.6,64.0,29.88,SSW,208,12.0,16.0,72,0.00,,,0.91,838.0,meteohub,2013-06-08 18:35:00,
2013-06-08 14:40:00,73.8,64.6,29.88,West,259,4.0,13.0,73,0.00,,,0.91,831.0,meteohub,2013-06-08 18:40:00,
2013-06-08 14:45:00,73.8,63.7,29.87,SSW,201,4.0,13.0,71,0.00,,,0.91,826.0,meteohub,2013-06-08 18:45:00,
2013-06-08 14:51:00,73.2,63.7,29.88,SW,234,6.0,14.0,72,0.00,,,0.91,821.0,meteohub,2013-06-08 18:51:00,
2013-06-08 14:56:00,73.2,64.0,29.88,WSW,240,8.0,15.0,73,0.00,,,0.91,814.0,meteohub,2013-06-08 18:56:00,
2013-06-08 15:01:00,73.4,64.2,29.88,SSE,165,8.0,15.0,73,0.00,,,0.91,853.0,meteohub,2013-06-08 19:01:00,
2013-06-08 15:06:00,73.8,64.2,29.88,SSW,205,6.0,15.0,72,0.00,,,0.91,803.0,meteohub,2013-06-08 19:06:00,
2013-06-08 15:11:00,73.8,64.2,29.89,WSW,242,7.0,16.0,72,0.00,,,0.91,796.0,meteohub,2013-06-08 19:11:00,
2013-06-08 15:16:00,73.8,64.2,29.89,West,267,3.0,16.0,72,0.00,,,0.91,742.0,meteohub,2013-06-08 19:16:00,
2013-06-08 15:22:00,74.7,64.6,29.89,WSW,245,5.0,16.0,71,0.00,,,0.91,784.0,meteohub,2013-06-08 19:22:00,
2013-06-08 15:27:00,75.6,64.8,29.88,WSW,250,2.0,14.0,69,0.00,,,0.91,773.0,meteohub,2013-06-08 19:27:00,
2013-06-08 15:32:00,75.4,64.6,29.88,SSW,196,4.0,13.0,69,0.00,,,0.91,680.0,meteohub,2013-06-08 19:32:00,
2013-06-08 15:37:00,75.7,65.3,29.88,WSW,238,6.0,13.0,70,0.00,,,0.91,752.0,meteohub,2013-06-08 19:37:00,
2013-06-08 15:42:00,75.7,64.8,29.88,South,183,5.0,13.0,69,0.00,,,0.91,733.0,meteohub,2013-06-08 19:42:00,
2013-06-08 15:47:00,75.7,64.8,29.88,SSW,200,7.0,11.0,69,0.00,,,0.91,577.0,meteohub,2013-06-08 19:47:00,
2013-06-08 15:52:00,75.7,64.8,29.87,SW,234,5.0,11.0,69,0.00,,,0.91,503.0,meteohub,2013-06-08 19:52:00,
2013-06-08 15:57:00,75.7,65.3,29.87,SW,234,3.0,11.0,70,0.00,,,0.91,241.0,meteohub,2013-06-08 19:57:00,
2013-06-08 16:02:00,75.4,65.7,29.88,SSW,211,0.0,11.0,72,0.00,,,0.91,642.0,meteohub,2013-06-08 20:02:00,
2013-06-08 16:07:00,76.3,66.2,29.87,SSW,198,2.0,11.0,71,0.00,,,0.91,339.0,meteohub,2013-06-08 20:07:00,
2013-06-08 16:12:00,75.0,64.9,29.88,WSW,239,6.0,8.0,71,0.00,,,0.91,244.0,meteohub,2013-06-08 20:12:00,
2013-06-08 16:17:00,74.5,64.9,29.88,SSW,207,2.0,10.0,72,0.00,,,0.91,213.0,meteohub,2013-06-08 20:17:00,
2013-06-08 16:22:00,74.1,64.9,29.89,SSW,204,3.0,10.0,73,0.00,,,0.91,248.0,meteohub,2013-06-08 20:22:00,
2013-06-08 16:27:00,73.9,65.1,29.89,SSW,197,0.0,10.0,74,0.00,,,0.91,220.0,meteohub,2013-06-08 20:27:00,
2013-06-08 16:32:00,74.1,65.3,29.89,SW,219,0.0,10.0,74,0.00,,,0.91,178.0,meteohub,2013-06-08 20:32:00,
2013-06-08 16:37:00,74.7,65.5,29.90,SSW,202,3.0,6.0,73,0.00,,,0.91,163.0,meteohub,2013-06-08 20:37:00,
2013-06-08 16:42:00,74.1,64.9,29.89,WSW,239,2.0,6.0,73,0.00,,,0.91,221.0,meteohub,2013-06-08 20:42:00,
2013-06-08 16:48:00,73.8,64.6,29.90,SSW,193,2.0,11.0,73,0.00,,,0.91,229.0,meteohub,2013-06-08 20:48:00,
2013-06-08 16:53:00,73.9,64.8,29.89,SW,221,5.0,11.0,73,0.00,,,0.91,309.0,meteohub,2013-06-08 20:53:00,
2013-06-08 16:58:00,74.1,64.9,29.90,SW,232,3.0,11.0,73,0.00,,,0.91,297.0,meteohub,2013-06-08 20:58:00,
2013-06-08 17:03:00,73.9,64.8,29.90,West,263,2.0,7.0,73,0.00,,,0.91,281.0,meteohub,2013-06-08 21:03:00,
2013-06-08 17:08:00,74.5,65.3,29.90,SW,227,1.0,8.0,73,0.00,,,0.91,343.0,meteohub,2013-06-08 21:08:00,
2013-06-08 17:13:00,74.7,65.1,29.90,South,180,3.0,8.0,72,0.00,,,0.91,255.0,meteohub,2013-06-08 21:13:00,
2013-06-08 17:18:00,74.8,65.1,29.90,SSW,205,0.0,8.0,72,0.00,,,0.91,663.0,meteohub,2013-06-08 21:18:00,
2013-06-08 17:23:00,75.0,64.9,29.90,SSW,199,5.0,7.0,71,0.00,,,0.91,309.0,meteohub,2013-06-08 21:23:00,
2013-06-08 17:28:00,74.8,65.1,29.90,SSW,192,6.0,10.0,72,0.00,,,0.91,325.0,meteohub,2013-06-08 21:28:00,
2013-06-08 17:33:00,74.7,65.1,29.90,SSW,203,3.0,10.0,72,0.00,,,0.91,392.0,meteohub,2013-06-08 21:33:00,
2013-06-08 17:39:00,74.7,65.1,29.90,SW,221,4.0,10.0,72,0.00,,,0.91,385.0,meteohub,2013-06-08 21:39:00,
2013-06-08 17:44:00,74.7,65.1,29.91,SSE,148,5.0,12.0,72,0.00,,,0.91,299.0,meteohub,2013-06-08 21:44:00,
2013-06-08 17:49:00,74.1,64.6,29.91,SSE,161,4.0,12.0,72,0.00,,,0.91,396.0,meteohub,2013-06-08 21:49:00,
2013-06-08 17:54:00,73.9,64.8,29.91,SSW,207,4.0,12.0,73,0.00,,,0.91,429.0,meteohub,2013-06-08 21:54:00,
2013-06-08 17:59:00,73.9,64.8,29.91,West,264,6.0,9.0,73,0.00,,,0.91,394.0,meteohub,2013-06-08 21:59:00,
2013-06-08 18:04:00,73.9,65.1,29.91,South,178,2.0,9.0,74,0.00,,,0.91,392.0,meteohub,2013-06-08 22:04:00,
2013-06-08 18:09:00,74.3,65.1,29.91,SSE,166,4.0,10.0,73,0.00,,,0.91,202.0,meteohub,2013-06-08 22:09:00,
2013-06-08 18:14:00,74.1,64.9,29.91,South,170,2.0,10.0,73,0.00,,,0.91,207.0,meteohub,2013-06-08 22:14:00,
2013-06-08 18:19:00,73.6,64.8,29.92,South,169,2.0,8.0,74,0.00,,,0.91,167.0,meteohub,2013-06-08 22:19:00,
2013-06-08 18:24:00,73.2,64.8,29.92,SW,231,3.0,11.0,75,0.00,,,0.91,146.0,meteohub,2013-06-08 22:24:00,
2013-06-08 18:29:00,72.9,65.3,29.92,South,189,3.0,11.0,77,0.00,,,0.91,195.0,meteohub,2013-06-08 22:29:00,
2013-06-08 18:34:00,72.7,65.5,29.92,South,186,4.0,11.0,78,0.00,,,0.91,128.0,meteohub,2013-06-08 22:34:00,
2013-06-08 18:39:00,72.7,65.5,29.92,SW,219,2.0,8.0,78,0.00,,,0.91,105.0,meteohub,2013-06-08 22:39:00,
2013-06-08 18:45:00,72.7,65.8,29.92,South,178,4.0,8.0,79,0.00,,,0.91,200.0,meteohub,2013-06-08 22:45:00,
2013-06-08 18:50:00,72.7,65.8,29.93,SSW,206,3.0,7.0,79,0.00,,,0.91,83.0,meteohub,2013-06-08 22:50:00,
2013-06-08 18:55:00,72.3,65.8,29.93,SSE,167,0.0,7.0,80,0.00,,,0.91,77.0,meteohub,2013-06-08 22:55:00,
2013-06-08 19:00:00,72.3,65.8,29.93,SSW,196,2.0,6.0,80,0.00,,,0.91,69.0,meteohub,2013-06-08 23:00:00,
2013-06-08 19:05:00,72.1,66.0,29.93,SW,225,3.0,6.0,81,0.00,,,0.91,74.0,meteohub,2013-06-08 23:05:00,
2013-06-08 19:10:00,72.0,65.8,29.93,SW,217,3.0,6.0,81,0.00,,,0.91,86.0,meteohub,2013-06-08 23:10:00,
2013-06-08 19:15:00,72.0,65.8,29.93,SSW,196,4.0,6.0,81,0.00,,,0.91,111.0,meteohub,2013-06-08 23:15:00,
2013-06-08 19:20:00,72.1,66.0,29.93,SSW,204,3.0,8.0,81,0.00,,,0.91,53.0,meteohub,2013-06-08 23:20:00,
2013-06-08 19:25:00,72.1,66.0,29.93,SSW,213,4.0,8.0,81,0.00,,,0.91,46.0,meteohub,2013-06-08 23:25:00,
2013-06-08 19:31:00,72.0,65.8,29.94,SSW,202,7.0,8.0,81,0.00,,,0.91,46.0,meteohub,2013-06-08 23:31:00,
2013-06-08 19:36:00,71.6,65.1,29.94,SW,228,2.0,9.0,80,0.00,,,0.91,37.0,meteohub,2013-06-08 23:36:00,
2013-06-08 19:41:00,71.4,65.3,29.94,SSW,205,2.0,9.0,81,0.00,,,0.91,26.0,meteohub,2013-06-08 23:41:00,
2013-06-08 19:46:00,71.2,65.1,29.94,SSW,196,0.0,9.0,81,0.00,,,0.91,25.0,meteohub,2013-06-08 23:46:00,
2013-06-08 19:51:00,70.9,64.8,29.94,South,171,0.0,5.0,81,0.00,,,0.91,21.0,meteohub,2013-06-08 23:51:00,
2013-06-08 19:56:00,70.7,64.9,29.94,West,277,2.0,5.0,82,0.00,,,0.91,21.0,meteohub,2013-06-08 23:56:00,
2013-06-08 20:01:00,70.3,64.6,29.95,West,277,0.0,6.0,82,0.00,,,0.91,14.0,meteohub,2013-06-09 00:01:00,
2013-06-08 20:06:00,70.2,64.8,29.95,West,277,0.0,6.0,83,0.00,,,0.00,11.0,meteohub,2013-06-09 00:06:00,
2013-06-08 20:12:00,70.0,64.6,29.95,West,277,0.0,4.0,83,0.00,,,0.00,7.0,meteohub,2013-06-09 00:12:00,
2013-06-08 20:17:00,70.0,64.6,29.95,West,277,1.0,4.0,83,0.00,,,0.00,5.0,meteohub,2013-06-09 00:17:00,
2013-06-08 20:22:00,70.0,64.9,29.95,West,277,0.0,2.0,84,0.00,,,0.00,0.0,meteohub,2013-06-09 00:22:00,
2013-06-08 20:27:00,70.0,64.9,29.95,West,277,0.0,2.0,84,0.00,,,0.00,0.0,meteohub,2013-06-09 00:27:00,
2013-06-08 20:32:00,69.8,64.8,29.95,West,277,0.0,2.0,84,0.00,,,0.00,0.0,meteohub,2013-06-09 00:32:00,
2013-06-08 20:37:00,69.6,64.9,29.95,West,277,0.0,1.0,85,0.00,,,0.00,0.0,meteohub,2013-06-09 00:37:00,
2013-06-08 20:42:00,69.4,64.8,29.95,West,277,0.0,0.0,85,0.00,,,0.00,0.0,meteohub,2013-06-09 00:42:00,
2013-06-08 20:48:00,68.7,64.0,29.95,West,277,0.0,0.0,85,0.00,,,0.00,0.0,meteohub,2013-06-09 00:48:00,
2013-06-08 20:53:00,68.2,64.2,29.95,West,277,0.0,0.0,87,0.00,,,0.00,0.0,meteohub,2013-06-09 00:53:00,
2013-06-08 20:58:00,67.5,63.9,29.95,West,277,0.0,0.0,88,0.00,,,0.00,0.0,meteohub,2013-06-09 00:58:00,
2013-06-08 21:03:00,67.1,63.7,29.95,West,277,0.0,0.0,89,0.00,,,0.00,0.0,meteohub,2013-06-09 01:03:00,
2013-06-08 21:08:00,66.7,63.7,29.95,West,277,0.0,0.0,90,0.00,,,0.00,0.0,meteohub,2013-06-09 01:08:00,
2013-06-08 21:13:00,66.4,63.3,29.95,West,277,0.0,1.0,90,0.00,,,0.00,0.0,meteohub,2013-06-09 01:13:00,
2013-06-08 21:18:00,66.4,63.7,29.96,West,277,0.0,1.0,91,0.00,,,0.00,0.0,meteohub,2013-06-09 01:18:00,
2013-06-08 21:24:00,66.0,63.3,29.96,West,277,0.0,1.0,91,0.00,,,0.00,0.0,meteohub,2013-06-09 01:24:00,
2013-06-08 21:29:00,65.8,63.1,29.97,West,277,0.0,0.0,91,0.00,,,0.00,0.0,meteohub,2013-06-09 01:29:00,
2013-06-08 21:34:00,65.5,62.8,29.97,West,277,0.0,0.0,91,0.00,,,0.00,0.0,meteohub,2013-06-09 01:34:00,
2013-06-08 21:39:00,65.1,62.8,29.98,West,277,0.0,0.0,92,0.00,,,0.00,0.0,meteohub,2013-06-09 01:39:00,
2013-06-08 21:44:00,64.9,62.6,29.98,West,277,0.0,1.0,92,0.00,,,0.00,0.0,meteohub,2013-06-09 01:44:00,
2013-06-08 21:49:00,65.1,63.0,29.99,West,277,0.0,1.0,93,0.00,,,0.00,0.0,meteohub,2013-06-09 01:49:00,
2013-06-08 21:54:00,65.7,63.3,29.99,West,277,0.0,4.0,92,0.00,,,0.00,0.0,meteohub,2013-06-09 01:54:00,
2013-06-08 21:59:00,66.0,63.7,29.99,West,277,0.0,5.0,92,0.00,,,0.00,0.0,meteohub,2013-06-09 01:59:00,
2013-06-08 22:05:00,66.2,63.9,29.99,West,273,0.0,5.0,92,0.00,,,0.00,0.0,meteohub,2013-06-09 02:05:00,
2013-06-08 22:10:00,65.8,63.1,29.99,West,273,0.0,5.0,91,0.00,,,0.00,0.0,meteohub,2013-06-09 02:10:00,
2013-06-08 22:15:00,65.3,62.6,29.99,West,273,0.0,2.0,91,0.00,,,0.00,0.0,meteohub,2013-06-09 02:15:00,
2013-06-08 22:20:00,64.9,62.6,29.99,West,273,0.0,0.0,92,0.00,,,0.00,0.0,meteohub,2013-06-09 02:20:00,
2013-06-08 22:25:00,64.9,62.2,30.00,West,273,0.0,0.0,91,0.00,,,0.00,0.0,meteohub,2013-06-09 02:25:00,
2013-06-08 22:30:00,64.4,62.1,30.00,West,273,1.0,1.0,92,0.00,,,0.00,0.0,meteohub,2013-06-09 02:30:00,
2013-06-08 22:36:00,64.2,61.9,30.01,West,273,0.0,2.0,92,0.00,,,0.00,0.0,meteohub,2013-06-09 02:36:00,
2013-06-08 22:41:00,63.9,61.5,30.00,West,275,0.0,5.0,92,0.00,,,0.00,0.0,meteohub,2013-06-09 02:41:00,
2013-06-08 22:46:00,63.9,61.9,30.00,West,275,0.0,5.0,93,0.00,,,0.00,0.0,meteohub,2013-06-09 02:46:00,
2013-06-08 22:52:00,64.0,62.1,30.00,West,275,0.0,5.0,93,0.00,,,0.00,0.0,meteohub,2013-06-09 02:52:00,
2013-06-08 22:57:00,63.7,61.3,30.01,NNE,32,2.0,6.0,92,0.00,,,0.00,0.0,meteohub,2013-06-09 02:57:00,
2013-06-08 23:02:00,63.7,61.3,30.01,NNE,32,0.0,6.0,92,0.00,,,0.00,0.0,meteohub,2013-06-09 03:02:00,
2013-06-08 23:07:00,63.7,61.3,30.01,NNE,32,0.0,6.0,92,0.00,,,0.00,0.0,meteohub,2013-06-09 03:07:00,
2013-06-08 23:12:00,63.9,61.5,30.01,NNE,32,0.0,4.0,92,0.00,,,0.00,0.0,meteohub,2013-06-09 03:12:00,
2013-06-08 23:17:00,63.7,61.3,30.01,NNE,32,0.0,2.0,92,0.00,,,0.00,0.0,meteohub,2013-06-09 03:17:00,
2013-06-08 23:22:00,63.5,61.2,30.01,NNE,32,0.0,0.0,92,0.00,,,0.00,0.0,meteohub,2013-06-09 03:22:00,
2013-06-08 23:27:00,63.1,60.8,30.02,NNE,32,0.0,0.0,92,0.00,,,0.00,0.0,meteohub,2013-06-09 03:27:00,
2013-06-08 23:32:00,62.8,60.4,30.01,NNE,32,0.0,0.0,92,0.00,,,0.00,0.0,meteohub,2013-06-09 03:32:00,
2013-06-08 23:37:00,62.6,60.6,30.01,NNE,32,0.0,0.0,93,0.00,,,0.00,0.0,meteohub,2013-06-09 03:37:00,
2013-06-08 23:43:00,62.2,60.3,30.02,NNE,32,0.0,0.0,93,0.00,,,0.00,0.0,meteohub,2013-06-09 03:43:00,
2013-06-08 23:48:00,62.2,60.3,30.02,NNE,32,0.0,0.0,93,0.00,,,0.00,0.0,meteohub,2013-06-09 03:48:00,
2013-06-08 23:53:00,62.1,60.1,30.02,NNE,32,0.0,0.0,93,0.00,,,0.00,0.0,meteohub,2013-06-09 03:53:00,
2013-06-08 23:58:00,61.9,59.9,30.02,NNE,32,2.0,0.0,93,0.00,,,0.00,0.0,meteohub,2013-06-09 03:58:00,